Location: Miss�
(46.9484°N, 0.1922°W)
Time: 03:45:09
(UTC+00:00)

SL-4 R/B - Pass Details

Date: 02 March 2021
Orbit: 428 x 663 km, 51.6° (Epoch: 16 April)

Event Time Altitude Azimuth Distance (km) Brightness Sun altitude
Rises 19:56:29 0° 294° (WNW) 2,463 6.8 -22.6°
Reaches altitude 10° 19:58:41 10° 298° (WNW) 1,564 5.4 -22.9°
Enters shadow 20:01:18 43° 326° (NW) 628 2.6 -23.4°
